Погода в Пунта-Горда

Белиз     16°05′53″N   88°48′37″W
темп.,
°C
ветер,
м/с
пор.,
м/с
влажн.,
%
обл.,
%
осадки,
мм/ч
давл.,
гПа
погр.,
м
20 января, чт
чт2000:00+25всв578055 2.3 1015681
03:00+24св568298 2.8 1013645
06:00+24в238135 5.6 1013353
09:00+24зюз238628 0.8 1016324
12:00+26всв32774 0.8 1015487
15:00+26всв56743 0.0 1012499
18:00+26всв78760 0.0 1013789
21:00+25св57804 0.1 1015793
21 января, пт
пт2100:00+25св458074 1.3 1015711
03:00+24ссз228477 1.4 1014269
06:00+23з228993 2.1 1015147
09:00+24ссз228265 0.4 1017184
12:00+26вюв11726 0.5 1015425
15:00+26в43711 0.0 1012523
18:00+25всв45790 0.4 1014365
21:00+25ссв568210 2.7 1016364
22 января, сб
сб2200:00+23зсз458655 5.5 1016184
03:00+22з689189 0.6 1016364
06:00+22з789247 0.7 1017392
09:00+22з679044 0.0 1020433
12:00+25зюз777537 0.1 1018784
15:00+26зюз666823 0.2 1015954
18:00+24зюз567579 0.4 1017501
21:00+23з568476 0.3 1018312
23 января, вс
вс2300:00+23з568581 0.9 1018292
03:00+22з6785100 0.3 1016367
06:00+23з568296 0.4 1017370
09:00+23з568093 0.0 1019419
12:00+25зюз33707 0.3 1017673
15:00+26зюз11683 0.6 1013591
18:00+25всв237672 1.6 1015202
21:00+24св118032 1.3 101697
24 января, пн
пн2400:00+23зсз228431 2.6 101590
03:00+22з338983 0.6 1013163
06:00+22зюз228839 1.0 1014170
09:00+23з22855 0.1 1016261
12:00+25в22758 0.2 1013423
15:00+26в54700 0.0 1010514
18:00+25всв56760 0.0 1010370
21:00+25всв45770 0.0 1012634